This demonstration page uses our WeatherBlox Daily Observations layout. Learn more.

39.92423, -83.80882

Hourly Observations for September 9, 2019

Temp ( °F °C ) Dew Point ( °F °C ) Humidity (%) Winds ( mph kmh ) Pressure ( in mb ) Visibility ( mi km ) Precip ( " mm )
12:56 am 00:56 Mostly Clear 60 15.6 60 15.6 100 100 NE 6 9 30.15 1021 10 16.09344 0 0
1:56 am 01:56 Cloudy 61 16.1 61 16.1 100 100 Calm 30.15 1021 10 16.09344 0 0
2:56 am 02:56 Cloudy 62 16.7 62 16.7 100 100 ENE 3 6 30.15 1021 10 16.09344 0 0
3:56 am 03:56 Mostly Cloudy 61 16.1 61 16.1 100 100 E 3 6 30.15 1021 10 16.09344 0 0
4:37 am 04:37 Partly Cloudy with Mist and Fog 59 15 59 15 100 100 E 5 7 30.18 1022 1.75 2.816352 0 0
4:49 am 04:49 Clear with Mist and Fog 57 14 57 14 100 100 E 6 9 30.18 1022 3 4.828032 0 0
4:56 am 04:56 Clear with Mist and Fog 58 14.4 58 14.4 100 100 E 7 11 30.15 1021 5 8.04672 0 0
5:56 am 05:56 Clear 57 13.9 57 13.9 100 100 ENE 5 7 30.15 1021 9 14.484096 0 0
6:56 am 06:56 Clear 57 13.9 57 13.9 100 100 E 3 6 30.15 1021 10 16.09344 0 0
7:56 am 07:56 Sunny 59 15 59 15 100 100 NE 5 7 30.21 1023 10 16.09344 0 0
8:56 am 08:56 Sunny 64 17.8 62 16.7 93 93 E 6 9 30.21 1023 10 16.09344 0 0
9:56 am 09:56 Sunny with Light Rain 66 18.9 62 16.7 87 87 E 8 13 30.24 1024 10 16.09344 0.001 0.001
10:56 am 10:56 Sunny 70 21.1 63 17.2 79 79 E 6 9 30.24 1024 10 16.09344 0 0
11:56 am 11:56 Sunny 74 23.3 64 17.8 71 71 E 7 11 30.21 1023 10 16.09344 0 0
12:56 pm 12:56 Sunny 77 25 61 16.1 58 58 Calm 30.21 1023 10 16.09344 0 0
1:56 pm 13:56 Sunny 78 25.6 60 15.6 54 54 E 6 9 30.21 1023 10 16.09344 0 0
2:56 pm 14:56 Sunny 80 26.7 63 17.2 56 56 E 7 11 30.18 1022 10 16.09344 0 0
3:56 pm 15:56 Sunny 80 26.7 62 16.7 54 54 S 5 7 30.18 1022 10 16.09344 0 0
4:56 pm 16:56 Sunny 81 27.2 63 17.2 54 54 VRB 6 9 30.18 1022 10 16.09344 0 0
5:56 pm 17:56 Sunny 80 26.7 62 16.7 54 54 S 5 7 30.18 1022 10 16.09344 0 0
6:56 pm 18:56 Sunny 79 26.1 62 16.7 56 56 SE 5 7 30.18 1022 10 16.09344 0 0
7:56 pm 19:56 Clear 73 22.8 64 17.8 74 74 E 3 6 30.18 1022 10 16.09344 0 0
8:56 pm 20:56 Clear 69 20.6 63 17.2 81 81 ESE 6 9 30.18 1022 10 16.09344 0 0
9:56 pm 21:56 Clear 67 19.4 62 16.7 84 84 SE 6 9 30.21 1023 10 16.09344 0 0
10:56 pm 22:56 Clear 65 18.3 61 16.1 87 87 Calm 30.21 1023 10 16.09344 0 0
11:56 pm 23:56 Clear 64 17.8 61 16.1 90 90 Calm 30.21 1023 10 16.09344 0 0

Powered by AerisWeather